Starlink 30119

operational
NORAD ID: 56823 Int'l Des: 2023-079 Owner: SPXS Country: US Constellation: starlink
LEOCIRCULAR

Starlink 30119について

説明を読み込み中...

リアルタイム位置

3D地球を読み込み中...

次回通過

高度履歴

Altitude vs Time

uPlot chart will show altitude changes over time

軌道要素

1 56823U 23079A 25305.65937219 -.00001964 00000-0 -13041-3 0 9996
2 56823 43.0048 83.1957 0001766 264.2731 95.7910 15.02517259134054
Epoch: Nov 1, 2025 • Age: 47 hours

現在のステータス

高度 564.2 km
速度 7.58 km/s
衛星直下点 -23.66°S, 11.48°E
打ち上げ日 Jun 4, 2023
運用期間 2.4 years
タイプ internet

技術仕様

分類 Payload
質量 730.00 kg
乾燥質量 700.00 kg
総質量 730.00 kg
長さ 0.30 m
直径 4.10 m
スパン 29.00 m
形状 Box + pan
製造者 SPXS
バスタイプ Starlink V2M
フェーズステータス In Orbit
所有者/国 SPXS/US

大規模コンステレーション

Loading constellations...